Tracking 19794 objects as of 21-Jul-2019
HD Live streaming from Space Station
objects crossing your sky now

NOAA 16 DEB

Track NOAA 16 DEB now!
10-day predictions


NORAD ID: 41159
Int'l Code: 2000-055CS
Perigee: 824.3 km
Apogee: 856.2 km
Inclination: 98.8 °
Period: 101.6 minutes
Semi major axis: 7211 km
RCS: Unknown
Launch date: September 21, 2000
Source: United States (US)
Launch site: AIR FORCE WESTERN TEST RANGE (AFWTR)

Note: This is SATELLITE DEBRIS
aabbcc
Your satellite tracking list
Your tracking list is empty




NASA's NSSDC Master Catalog

Two Line Element Set (TLE):
1 41159U 00055CS  19199.99996019  .00000446  00000-0  23993-3 0  9994
2 41159  98.7710 274.4456 0022167 291.4418  68.4393 14.17705749187782
Source of the keplerian elements: AFSPC